Find Starlink 35486

NORAD ID: 66253 Int'l Des: 2025-245 Owner: SPXS Country: US Constellation: starlink operational
LEOCIRCULAR

現在のビュー

3D地球を読み込み中...

Starlink 35486について

説明を読み込み中...

次回通過

Passes for default location (London). Set your location on the main map for personalized predictions.

高度履歴

Loading altitude history...

軌道要素

1 66253U 25245V 26146.57444137 .00020390 00000-0 66672-3 0 9998
2 66253 53.1607 281.9371 0001857 90.3047 269.8167 15.31714808 32979
Epoch: May 26, 2026 • Age: 7 hours

現在のステータス

高度 475.4 km
速度 7.63 km/s
衛星直下点 50.39°N, 154.86°E
打ち上げ日 Oct 29, 2025
運用期間 0.5 years
タイプ internet

技術仕様

分類 Payload
質量 575.00 kg
乾燥質量 530.00 kg
総質量 575.00 kg
長さ 0.30 m
直径 4.10 m
スパン 29.00 m
形状 Box + pan
製造者 SPXS
バスタイプ Starlink V2MO
フェーズステータス In Orbit
所有者/国 SPXS/US

Most Searched